星链-2191 (STARLINK-2191 )

导读 | 豆包AI

STARLINK-2191是美国太空探索技术公司SpaceX星链星座中的一员,于2021年5月15日发射入轨。星链星座旨在构建全球卫星互联网通信系统,该卫星承担着为地面用户提供低延迟、高速率网络接入服务的任务,运行在近地轨道,助力星链实现全球覆盖的组网目标,也推动了低轨卫星通信产业的发展。

Basic Information
目录编号:
48565
目录名称:
STARLINK-2191
国际标识:
2021-041N
轨道中心:
EARTH
卫星名称:
星链-2191
卫星全名:
星链-2191 (STARLINK-2191 )
卫星状态:
已陨落 最后检测时间 2025-07-30
发射日期:
2021-05-15 UTC
国别 :
美国 (US)
星等 :
--
Orbit Information
数据来源 国际轨道数据
星历时间: 2025-07-30T21:07:53+0800
轨道信息已过期274天
半长轴: 6523.184km
偏心率: 0.0007067
轨道倾角: 53.009°
近地点辐角 291.256°
升交点赤经 306.460°
平近点角 169.954°
近地点: 140.439km
远地点: 149.659km
周期: 87.387分钟
每日圈数: 16.478338
Detailed Information
固有亮度:
5
最大亮度:
2.5
卫星平台:
Starlink V1.0
覆盖范围:
全球
运营商:
太空探索技术公司
运营商所在国:
美国
制造商(研发单位):
太空探索技术公司
制造商所在国:
美国
使用方式:
暂无
Satellite Introduction
星链(Starlink)计划是由太空探索技术公司(SpaceX)提出的一个巨型低轨卫星互联网星座项目,计划在2019年至2024年间在太空搭建由约1.2万颗卫星组成的“星链”网络,其中1584颗将部署在地球上空550千米处的近地轨道,并从2020年开始工作。该卫星仍在工作。